DW2470 Weather Reports


time (UTC)temp
F
wind
direction
speed
knots
gust
knots
rain 1hr
in
rain 24hr
in
rain mn
in
humidity
%
barometer
mb
20240222120008 27 248 9.6 0.0 0.00 0.00 0.00 93 1014.7
20240222114538 27 240 8.7 0.0 0.00 0.00 0.00 93 1014.7
20240222113037 27 14 7.8 0.0 0.00 0.00 0.00 93 1014.8
20240222111535 27 264 7.0 0.0 0.00 0.00 0.00 94 1014.8
20240222110035 27 251 7.8 0.0 0.00 0.00 0.00 94 1014.7
20240222104536 27 14 7.8 0.0 0.00 0.00 0.00 94 1014.8
20240222103034 27 261 7.8 0.0 0.00 0.00 0.00 94 1014.9
20240222101508 27 251 8.7 0.0 0.00 0.00 0.00 94 1014.8
20240222100101 27 266 7.8 0.0 0.00 0.00 0.00 94 1014.8
20240222094556 27 266 6.1 0.0 0.00 0.00 0.00 94 1014.7
20240222093054 26 264 5.2 0.0 0.00 0.00 0.00 94 1014.8
20240222091557 26 262 5.2 0.0 0.00 0.00 0.00 94 1014.6
20240222090058 26 304 4.3 0.0 0.00 0.00 0.00 93 1014.6
20240222084547 26 14 2.6 0.0 0.00 0.00 0.00 93 1014.7
20240222083057 26 14 2.6 0.0 0.00 0.00 0.00 93 1014.6
20240222081546 26 336 5.2 0.0 0.00 0.00 0.00 92 1014.7
20240222080043 27 329 3.5 0.0 0.00 0.00 0.00 91 1014.6
20240222074541 27 314 1.7 0.0 0.00 0.00 0.00 91 1014.5
20240222073035 28 312 2.6 0.0 0.00 0.00 0.00 91 1014.3
20240222071531 29 314 4.3 0.0 0.00 0.00 0.00 91 1014.3
20240222070031 29 334 5.2 0.0 0.00 0.00 0.00 91 1014.1
20240222064531 29 333 7.0 0.0 0.00 0.00 0.00 91 1014.2
20240222063035 29 327 4.3 0.0 0.00 0.00 0.00 90 1014.0
20240222061523 30 316 5.2 0.0 0.00 0.00 0.00 90 1013.7
20240222060022 30 328 7.0 0.0 0.00 0.00 0.00 90 1013.7
20240222054513 30 323 4.3 0.0 0.00 0.00 0.00 89 1013.5
20240222053012 31 298 3.5 0.0 0.00 0.00 0.00 89 1013.1
20240222051508 31 297 4.3 0.0 0.00 0.00 0.00 88 1013.2
20240222050006 32 293 6.1 0.0 0.00 0.00 0.00 88 1013.1
20240222044503 32 306 4.3 0.0 0.00 0.00 0.00 88 1013.0
20240222043001 32 315 2.6 0.0 0.00 0.00 0.00 86 1012.7
20240222041558 33 306 3.5 0.0 0.00 0.00 0.00 86 1012.4
20240222040056 34 295 5.2 0.0 0.00 0.00 0.00 86 1012.3
20240222034555 34 329 2.6 0.0 0.00 0.00 0.00 85 1012.2
20240222033051 34 332 2.6 0.0 0.00 0.00 0.00 85 1012.0
20240222031549 35 331 4.3 0.0 0.00 0.00 0.00 83 1011.9
20240222030057 35 329 5.2 0.0 0.00 0.00 0.00 84 1011.7
20240222024547 36 318 5.2 0.0 0.00 0.00 0.00 82 1011.5
20240222023052 37 297 7.0 0.0 0.00 0.00 0.00 81 1011.2
20240222021542 37 287 5.2 0.0 0.00 0.00 0.00 80 1011.0
20240222020042 37 268 4.3 0.0 0.00 0.00 0.00 80 1010.8
20240222014541 38 271 6.1 0.0 0.00 0.00 0.00 77 1010.6
20240222013048 39 275 5.2 0.0 0.00 0.00 0.00 78 1010.3
20240222011540 40 277 4.3 0.0 0.00 0.00 0.00 76 1010.3
20240222010038 41 281 7.0 0.0 0.00 0.00 0.00 74 1010.0
20240222004541 41 266 7.0 0.0 0.00 0.00 0.00 73 1009.8
20240222003036 43 268 7.8 0.0 0.00 0.00 0.00 71 1009.6
20240222001536 44 263 6.1 0.0 0.00 0.00 0.00 70 1009.4
20240222000034 45 279 6.1 0.0 0.00 0.00 0.00 68 1009.3
20240221234543 46 275 7.0 0.0 0.00 0.00 0.00 67 1009.2
20240221233032 47 276 8.7 0.0 0.00 0.00 0.00 65 1009.1
20240221231535 48 275 10.4 0.0 0.00 0.00 0.00 64 1009.1
20240221230031 48 273 10.4 0.0 0.00 0.00 0.00 62 1009.1
20240221224529 49 273 12.2 0.0 0.00 0.00 0.00 60 1009.0
20240221223027 48 273 13.0 0.0 0.00 0.00 0.00 61 1008.9
20240221221534 48 266 13.9 0.0 0.00 0.00 0.00 62 1008.8
20240221220039 49 265 11.3 0.0 0.00 0.00 0.00 60 1008.8
20240221214531 49 272 18.2 0.0 0.00 0.00 0.00 59 1008.6
20240221213024 50 274 13.9 0.0 0.00 0.00 0.00 59 1008.6
20240221211519 49 273 14.8 0.0 0.00 0.00 0.00 61 1008.6
20240221210021 48 289 11.3 0.0 0.00 0.00 0.00 64 1008.5
20240221204514 46 278 10.4 0.0 0.00 0.00 0.00 67 1008.6
20240221203046 46 275 12.2 0.0 0.00 0.00 0.00 68 1008.5
20240221201544 46 285 12.2 0.0 0.00 0.00 0.00 69 1008.6
20240221200012 46 281 12.2 0.0 0.00 0.00 0.00 66 1008.7
20240221194514 46 272 13.0 0.0 0.00 0.00 0.00 67 1008.7
20240221193009 47 290 13.9 0.0 0.00 0.00 0.00 65 1008.8
20240221191511 46 264 10.4 0.0 0.00 0.00 0.00 67 1008.8
20240221190003 46 278 12.2 0.0 0.00 0.00 0.00 67 1008.9
20240221184503 46 260 13.9 0.0 0.00 0.00 0.00 68 1009.1
20240221183104 46 267 13.0 0.0 0.00 0.00 0.00 66 1009.4
20240221181620 45 258 13.9 0.0 0.00 0.00 0.00 67 1009.4
20240221180105 45 282 12.2 0.0 0.00 0.00 0.00 69 1009.4
20240221174603 44 266 12.2 0.0 0.00 0.00 0.00 70 1009.4
20240221173046 43 275 13.0 0.0 0.00 0.00 0.00 70 1009.4
20240221171545 43 268 13.0 0.0 0.00 0.00 0.00 71 1009.5
20240221170043 42 254 14.8 0.0 0.00 0.00 0.00 71 1009.6
20240221164553 42 258 13.0 0.0 0.00 0.00 0.00 72 1009.6
20240221163034 41 252 13.0 0.0 0.00 0.00 0.00 74 1009.6
20240221161533 40 14 12.2 0.0 0.00 0.00 0.00 76 1009.4
20240221160029 39 252 10.4 0.0 0.00 0.00 0.00 78 1009.5
20240221154526 38 241 9.6 0.0 0.00 0.00 0.00 79 1009.3
20240221153030 38 232 9.6 0.0 0.00 0.00 0.00 80 1009.3
20240221151528 37 221 9.6 0.0 0.00 0.00 0.00 80 1009.1
20240221150020 37 223 8.7 0.0 0.00 0.00 0.00 80 1009.2
20240221144520 36 225 9.6 0.0 0.00 0.00 0.00 82 1009.2
20240221143019 35 229 9.6 0.0 0.00 0.00 0.00 82 1009.3
20240221141524 35 237 9.6 0.0 0.00 0.00 0.00 83 1009.4
20240221140017 34 235 9.6 0.0 0.00 0.00 0.00 84 1009.3
20240221134517 35 214 9.6 0.0 0.00 0.00 0.00 81 1009.3
20240221133013 35 224 10.4 0.0 0.00 0.00 0.00 82 1009.2
20240221131522 37 225 12.2 0.0 0.00 0.00 0.00 79 1009.3
20240221130011 36 229 11.3 0.0 0.00 0.00 0.00 82 1009.1
20240221124510 35 225 11.3 0.0 0.00 0.00 0.00 83 1009.0
20240221123010 36 224 10.4 0.0 0.00 0.00 0.00 83 1009.1
20240221121508 35 227 11.3 0.0 0.00 0.00 0.00 83 1009.1